Retour au catalogue

SL-16 DEB

ActifLEO
NORAD 22367·DEBRIS·🇷🇺 Russia

Lancé Dec 25, 1992 depuis Baikonur Cosmodrome

Loading…

Prochains Passages (prochaines 24 heures)

TLE

FraisSource: Space-Track

Époque: Sep 13, 2026, 23:21 UTC

1 22367U 92093BG  26256.97322652  .00000009  00000-0  43726-4 0  9995
2 22367  70.8997  81.7948 0188805 265.1012 249.7710 13.83434741700359

Suivez SL-16 DEB en temps réel avec AllMySat

Download on the App Store